Location: *
(6.0000°S, 32.3997°W)
Time: 12:25:46
(UTC+00:00)

USA 229 - Pass Details

Date: 01 April 2020
Orbit: 981 x 1231 km, 63.4° (Epoch: 31 May)

Event Time Altitude Azimuth Distance (km) Brightness Sun altitude
Rises 21:41:00 0° 334° (NNW) 4,118 7.2 -22.3°
Reaches altitude 10° 21:43:44 10° 333° (NNW) 3,169 6.5 -23.0°
Maximum altitude 21:51:26 79° 247° (WSW) 1,252 4.0 -24.9°
Enters shadow 21:58:45 12° 161° (SSE) 3,036 5.9 -26.7°
